STARLINK-1648, 46533

Orbit data source: Space-Track

STARLINK-1648, 46533 is a payload satellite owned by SpaceX/Seattle (US) in LEO that was launched on Tue, 06 Oct 2020 UTC via an FALCON 9 launch vehicle from the Air Force Eastern Test Range (AFETR). Payload-class satellites include a variety of spacecraft equipped with specific instruments for various scientific and technological missions. These include communications satellites like Starlink; space stations such as the ISS; scientific satellites like the Hubble; Earth observation satellites from companies like Planet Labs, Umbra, and HawkEye 360; GPS; miniature CubeSats for education and research; and military/defense satellites.

Loading next visibility...
Identifier
46533, 2020-070B
Orbit
LEO
Country
Flag of USUS
Related business
Manufacturer
SpaceX/Seattle
Mission
Operational Commercial Communications
Bus & Motor
STARLINK, Unknown motor
Mass
260 kg wet, ~248 kg dry
Launch date (UTC)
2020-10-06 (5 years ago)
Launch vehicle
FALCON 9
Launch site
Air Force Eastern Test Range (AFETR)
Object type
Payload
Rocket body
Debris
Shape & HBR
Box + 1 Pan, 10.1 m
Radar Cross Section
13.562 m², Large (>1 m²)

Expand to show TLE details & history
Last TLE update: 3 hours ago

TLE from 3 hours ago
0 STARLINK-1648
1 46533U 20070B   25291.33336806  .01776688  00000-0  93275-1 0  9991
2 46533  53.0537  95.5614 0001010 128.5962  34.6321 15.11928098  5818
Epoch: 2025-10-18T08:00Z
TLE epoch observation values (Epoch: 2025-10-18T08:00:03.000Z)
Latitude
13.33145°
Longitude
118.27383°
Altitude
529.875 km
Speed
7.601 km/s
True Right ascension
17h 41m 24s
True Declination
13° 15' 07"
Sunlit
Object was in daylight at epoch
Visualization orbit readout
Latitude
Unknown
Longitude
Unknown
Altitude
Unknown
Speed
Unknown
Apparent Right ascension
Unknown
Apparent Declination
Unknown
Sunlit
N/A
Visualization observer readout
Local Sidereal Time
06:03:38
Azimuth
Unknown
Elevation
Unknown
Doppler factor
Unknown
Orbital elements
Apogee altitude
531.29 km
Perigee altitude
529.894 km
Semi-major axis
6,908.729 km
Eccentricity
0.0001
Inclination
53.0537°
RAAN
95.5614°
Arg. of periapsis
128.5962°
True anomaly
34.63868°
Mean anomaly
34.6321°
Eccentric anomaly
34.63539°
Mean motion
3.7796 °/min
Orbital period
95.25 mins
BSTAR
0.093275
Loading maneuver chart data...
Computing Atmospheric mass density...

Documentation

Showing up to 5 results
|